Regional Weather Roundup
Issued by NWS Bismarck, ND

Home | Current Version | Previous Version | Text Only | Print | Product List | Glossary On
Versions: 1 2 3 4 5 6 7 8 9 10 11 12 13 14 15 16 17 18 19 20 21 22 23 24 25 26 27 28 29 30 31 32 33 34 35 36 37 38 39 40 41 42 43 44 45 46 47 48 49 50
000
ASUS43 KBIS 212110
RWRBIS

NWR BROADCAST TEXT
NATIONAL WEATHER SERVICE BISMARCK ND
400 PM CDT THU AUG 21 2014

NOTE: "FAIR" INDICATES FEW OR NO CLOUDS BELOW 12,000 FEET WITH NO
SIGNIFICANT WEATHER AND/OR OBSTRUCTIONS TO VISIBILITY.


CITY           SKY/WX    TMP DP  RH WIND       PRES   REMARKS
WILLISTON      PTSUNNY   72  58  61 N9        29.96S
MINOT          PTSUNNY   76  61  59 NW12      29.88S
MINOT AFB      SUNNY     78  62  57 NW12      29.88R
BISMARCK       MOSUNNY   81  64  56 N10G21    29.88R
DICKINSON      MOSUNNY   79  59  50 N9        29.93S
GARRISON         N/A     76  63  64 N15G22    29.90R
HETTINGER ARPT SUNNY     81  57  43 NW5       29.94S
JAMESTOWN      MOSUNNY   79  67  66 NW12      29.82R
BEACH            N/A     70  64  83 NW20      29.99R
CARRINGTON     FAIR      77  72  83 NW13G18   29.84S
CROSBY         CLOUDY    66  63  88 N8        29.97S
HARVEY         MOCLDY    77  66  69 NW15      29.85S
HAZEN          FAIR      77  61  57 NW17G23   29.90R
LINTON         FAIR      79  66  65 N13       29.87S
MANDAN         FAIR      79  63  57 NW9       29.90R
RUGBY          FAIR      75  68  78 NW14      29.85R
STANLEY        FAIR      73  59  60 NW13      29.94R
TIOGA          MOCLDY    73  59  60 NW13G18   29.98R
WATFORD CITY   FAIR      73  57  56 NW13G21   29.94S
$$

CITY           SKY/WX    TMP DP  RH WIND       PRES   REMARKS
GRAND FORKS    CLOUDY    75  69  81 S5        29.79S
GRAND FORKS AF CLOUDY    76  71  85 SE6       29.81S
DEVILS LAKE    CLOUDY    75  66  73 N7        29.81S
FARGO          CLOUDY    75  69  81 SE7       29.79R
CANDO          CLOUDY    75  68  78 N9        29.84S
CAVALIER       CLOUDY    73  66  78 E5        29.82R
GRAFTON        CLOUDY    73  68  83 N9        29.81R
GWINNER        MOCLDY    82  70  65 N10       29.81R
LANGDON        CLOUDY    72  66  83 NE6       29.84S
ROLLA          CLOUDY    72  70  94 N9        29.88R
WALHALLA         N/A     73  73 100 SE6       29.83R
$$

CITY           SKY/WX    TMP DP  RH WIND       PRES   REMARKS
ABERDEEN       MOSUNNY   84  68  58 NW15      29.82R
MOBRIDGE       SUNNY     83  64  52 NW10      29.85R
BUFFALO          N/A     80  54  40 N6        29.90R
RAPID CITY     MOSUNNY   80  54  40 CALM      29.96S
GLASGOW        CLOUDY    68  56  65 CALM      29.98R
SIDNEY         PTSUNNY   66  63  88 E7        29.97F
WOLF POINT     PTSUNNY   73  58  59 MISG      29.97F
GLENDIVE       MOSUNNY   66  63  88 NE14      29.99S
MILES CITY     PTSUNNY   76  54  46 MISG      29.97S
BAKER          PTSUNNY   78  56  46 NW13      29.99R
$$

CITY           SKY/WX    TMP DP  RH WIND       PRES   REMARKS
BILLINGS       LGT RAIN  61  57  87 N9        30.07R FOG
GREAT FALLS    CLOUDY    65  51  60 N6        30.09S
REGINA         PTSUNNY   64  55  72 N14G24    30.01R
ESTEVAN        PTSUNNY   68  61  77 NW8       29.96S
$$



USA.gov is the U.S. government's official web portal to all federal, state and local government web resources and services.